Moab, UT

8:33 AM MDT on October 17, 2017 (GMT -0600)
Canyonlands

Weather History for KCNY - January, 2013

Change the Weather History Date:

Tuesday, January 22, 2013

  Actual Average Record
Temperature  
Mean Temperature 4 °F 28 °F  
Max Temperature 18 °F 39 °F 59 °F (1972)
Min Temperature -10 °F 17 °F -24 °F (1930)
Degree Days  
Heating Degree Days 61 37  
Month to date heating degree days 1384 857  
Since 1 July heating degree days 3649 3254  
Cooling Degree Days 0 0  
Month to date cooling degree days 0 0  
Year to date cooling degree days 0 0  
Moisture  
Dew Point 0 °F    
Average Humidity 90    
Maximum Humidity 100    
Minimum Humidity 79    
Precipitation  
Precipitation 0.00 in 0.01 in 0.20 in (1969)
Month to date precipitation 0.01 0.48  
Year to date precipitation 0.01 0.48  
Sea Level Pressure  
Sea Level Pressure 30.52 in    
Wind  
Wind Speed 2 mph (WNW)    
Max Wind Speed 14 mph    
Max Gust Speed 16 mph    
Visibility 5 miles    
Events Fog    
T = Trace of Precipitation, MM = Missing Value Source: NWS Daily Summary

Daily Weather History Graph

Daily Weather History Graph

Search for Another Location

Airport or City:

Trip Planner

Search our weather history database for the weather conditions in past years. The results will help you decide how hot, cold, wet, or windy it might be!

Date:

Astronomy

Jan. 22, 2013 Rise Set
Actual Time 7:32 AM MST 5:29 PM MST
Civil Twilight 7:03 AM MST 5:58 PM MST
Nautical Twilight 6:31 AM MST 6:30 PM MST
Astronomical Twilight 5:59 AM MST 7:02 PM MST
Moon 1:55 PM MST (1/22) 3:56 AM MST (1/22)
Length of Visible Light 10h 54m
Length of Day
9h 57m
Waxing Gibbous, 83% of the Moon is Illuminated
Jan 22
Waxing Gibbous
Jan 26
Full
Feb 3
Last Quarter
Feb 10
New
Feb 17
First Quarter

Hourly Weather History & Observations

Time (MST) Temp. Windchill Dew Point Humidity Pressure Visibility Wind Dir Wind Speed Gust Speed Precip Events Conditions
12:53 AM 5.0 °F - 3.0 °F 92% 30.59 in 10.0 mi Calm Calm - N/A   Clear
1:53 AM 3.9 °F - 1.0 °F 88% 30.59 in 10.0 mi Calm Calm - N/A   Clear
2:53 AM 1.9 °F - -2.0 °F 83% 30.60 in 1.2 mi Calm Calm - N/A   Clear
3:08 AM 1.4 °F -6.2 °F -0.4 °F 92% 30.39 in 10.0 mi West 3.5 mph - N/A   Clear
3:53 AM 5.0 °F -2.1 °F 1.9 °F 87% 30.60 in 10.0 mi Variable 3.5 mph - N/A   Clear
4:53 AM 1.0 °F - -0.9 °F 91% 30.62 in 7.0 mi Calm Calm - N/A   Clear
5:41 AM -0.4 °F - -4.0 °F 85% 30.40 in 2.5 mi Calm Calm - N/A   Scattered Clouds
5:44 AM 1.4 °F -6.2 °F -2.2 °F 85% 30.40 in 1.0 mi West 3.5 mph - N/A   Mist
5:51 AM 1.4 °F -6.2 °F -0.4 °F 92% 30.41 in 0.8 mi SW 3.5 mph - N/A   Mist
5:53 AM -0.0 °F - -2.0 °F 91% 30.65 in 1.2 mi Calm Calm - N/A   Partly Cloudy
5:56 AM -0.4 °F - -2.2 °F 92% 30.41 in 5.0 mi Calm Calm - N/A   Partly Cloudy
6:03 AM -4.0 °F -12.4 °F -7.6 °F 85% 30.41 in 1.8 mi ENE 3.5 mph - N/A   Partly Cloudy
6:16 AM -5.8 °F - -5.8 °F 100% 30.41 in 3.0 mi Calm Calm - N/A   Clear
6:26 AM -2.2 °F - -7.6 °F 78% 30.42 in 2.0 mi Calm Calm - N/A   Haze
6:30 AM -0.4 °F - -5.8 °F 78% 30.42 in 1.0 mi Calm Calm - N/A   Haze
6:40 AM -5.8 °F - -9.4 °F 84% 30.42 in 0.5 mi Calm Calm - N/A Fog Light Freezing Fog
6:53 AM -2.9 °F -11.2 °F -6.0 °F 87% 30.68 in 0.5 mi West 3.5 mph - N/A Fog Light Freezing Fog
6:59 AM -2.2 °F - -5.8 °F 85% 30.41 in 2.0 mi Calm Calm - N/A   Overcast
7:06 AM -0.4 °F - -5.8 °F 78% 30.41 in 10.0 mi Calm Calm - N/A   Mostly Cloudy
7:21 AM 1.4 °F - -4.0 °F 78% 30.42 in 10.0 mi Calm Calm - N/A   Scattered Clouds
7:39 AM -0.4 °F - -5.8 °F 78% 30.42 in 10.0 mi Calm Calm - N/A   Mostly Cloudy
7:53 AM -9.9 °F - -13.0 °F 86% 30.72 in 4.0 mi Calm Calm - N/A   Overcast
8:31 AM -2.2 °F - -2.2 °F 100% 30.43 in 4.0 mi Calm Calm - N/A   Scattered Clouds
8:37 AM -5.8 °F - -5.8 °F 100% 30.43 in 1.5 mi Calm Calm - N/A   Scattered Clouds
8:40 AM -5.8 °F - -5.8 °F 100% 30.43 in 0.8 mi Calm Calm - N/A   Mist
8:53 AM -0.9 °F - -2.0 °F 95% 30.70 in 0.5 mi Calm Calm - N/A Fog Light Freezing Fog
9:16 AM 1.4 °F - -2.2 °F 85% 30.44 in 1.0 mi Calm Calm - N/A   Mist
9:26 AM 3.2 °F - 3.2 °F 100% 30.44 in 3.0 mi Calm Calm - N/A   Mostly Cloudy
9:37 AM -0.4 °F - -0.4 °F 100% 30.44 in 7.0 mi Calm Calm - N/A   Scattered Clouds
9:53 AM 1.9 °F - 1.9 °F 100% 30.72 in 9.0 mi Calm Calm - N/A   Clear
10:53 AM 9.0 °F 0.6 °F 6.1 °F 88% 30.70 in 10.0 mi West 4.6 mph - N/A   Clear
11:53 AM 16.0 °F 7.4 °F 10.9 °F 81% 30.66 in 10.0 mi NW 5.8 mph - N/A   Clear
12:53 PM 16.0 °F 6.3 °F 10.9 °F 81% 30.61 in 10.0 mi NNW 6.9 mph - N/A   Clear
1:53 PM 17.1 °F 5.0 °F 12.0 °F 81% 30.59 in 10.0 mi NW 10.4 mph - N/A   Clear
2:53 PM 17.1 °F 4.3 °F 12.0 °F 81% 30.59 in 10.0 mi NNW 11.5 mph - N/A   Clear
3:53 PM 16.0 °F 10.4 °F 12.0 °F 84% 30.58 in 10.0 mi West 3.5 mph - N/A   Clear
4:53 PM 16.0 °F - 10.9 °F 81% 30.59 in 10.0 mi Calm Calm - N/A   Clear
5:53 PM 14.0 °F - 10.0 °F 84% 30.60 in 10.0 mi Calm Calm - N/A   Clear
6:53 PM 12.9 °F - 10.0 °F 88% 30.63 in 10.0 mi Calm Calm - N/A   Clear
7:53 PM 1.0 °F -6.7 °F -0.0 °F 95% 30.70 in 7.0 mi WSW 3.5 mph - N/A   Clear
8:53 PM 6.1 °F - 3.0 °F 87% 30.66 in 6.0 mi Calm Calm - N/A   Clear
9:24 PM 5.0 °F - 1.4 °F 85% 30.40 in 1.5 mi Calm Calm - N/A   Clear
9:33 PM 3.2 °F - 1.4 °F 92% 30.40 in 1.0 mi Calm Calm - N/A   Mist
9:40 PM 5.0 °F - 3.2 °F 92% 30.40 in 2.0 mi Calm Calm - N/A   Partly Cloudy
9:45 PM 5.0 °F - 3.2 °F 92% 30.40 in 1.0 mi Calm Calm - N/A   Mist
9:53 PM 7.0 °F - 3.9 °F 87% 30.65 in 1.0 mi Calm Calm - N/A   Mist
9:55 PM 6.8 °F -0.1 °F 3.2 °F 85% 30.40 in 2.0 mi WSW 3.5 mph - N/A   Partly Cloudy
10:03 PM 6.8 °F -0.1 °F 3.2 °F 85% 30.40 in 9.0 mi WSW 3.5 mph - N/A   Clear
10:53 PM 6.1 °F - 3.0 °F 87% 30.65 in 5.0 mi Calm Calm - N/A   Clear
11:34 PM -0.4 °F - -4.0 °F 85% 30.43 in 1.8 mi Calm Calm - N/A   Clear
11:44 PM 3.2 °F - 1.4 °F 92% 30.43 in 3.0 mi Calm Calm - N/A   Clear
11:53 PM 1.9 °F - -0.0 °F 91% 30.65 in 10.0 mi Calm Calm - N/A   Clear